Persoonlijke zone
Imprimable
Torhout, 21/06/2013, BEL - Nacht van Vlaanderen
Rapportenlijst > Half Marathon - Resultaat
Zoek: Bladzijde: [1]
91 Inputs
 
Klachten worden niet meer geaccepteerd. Resultaten zijn definitief.
PlaatsNrNaamLeef.IOCClubWerkelijkeTijdTkmGem.ScrGemeente
1.2097DESCHODT Bert32BEL1:14:591:14:593:34 16.884HARELBEKE
2.2025BRYSBAERT Kevin23BEL1:15:121:15:133:34 16.835WESTVLETEREN
3.2151LERNOUT Dries34BEL1:15:361:15:373:36 16.746GELUWE
4.2141KINYANJUI Jeremiah34BEL1:19:171:19:173:46 15.9611ASSEBROEK
5.2218VANDECAVEYE Arne23BEL1:20:241:20:253:49 15.7416EERNEGEM
6.2119FISCHER Benny30BEL1:21:471:21:473:53 15.4822BREDENE
7.2292GEERAERT Sebastiaan24BEL1:27:021:27:184:09 14.5029
8.2336DEMAN Timmy31BEL1:27:271:27:444:10 14.4332ZWEVEZELE
9.2139KETELS Jens22BELCNH ZEDELGEM1:27:361:27:464:10 14.4233GISTEL
10.2194TEMPELAERE Pascal23BEL1:28:151:28:154:12 14.3437TORHOUT
11.2202VAN DE VELDE Dimitri33BEL1:29:341:29:504:16 14.0944WELLE
12.2212VANCOILLIE Olorin27BEL1:31:351:32:184:23 13.7156HEULE
13.2244VERBUGGHE Stijn29BEL1:32:161:32:344:24 13.6757WEVELGEM
14.2121GADEYNE Kevin27BEL1:32:431:32:444:24 13.6558ICHTEGEM
15.2291VANDAMME Kristof34BEL1:32:541:33:084:25 13.5962
16.2034CATTECEUR Andy31BEL1:33:241:33:264:26 13.5566TORHOUT
17.2242VELGHE Gilles21BEL1:33:051:33:474:27 13.5069NIEUWPOORT
18.2122GADEYNE Timothy32BEL1:33:321:34:064:28 13.4570IEPER
19.2102DEVRIENDT Maarten19BEL1:34:211:34:274:29 13.4072EERNEGEM
20.2018BOGAERT Pieter-Jan29BEL1:34:461:34:504:30 13.3574TORHOUT
21.2138JESPERS Christof33BEL1:34:421:35:174:32 13.2876TORHOUT
22.2159MEEUS Samuel22BEL1:35:061:35:474:33 13.2278GISTEL
23.2117EMBO Kasper29BEL1:36:151:36:274:35 13.1281ICHTEGEM
24.2187DELTOUR Steven35BEL1:35:561:36:364:35 13.1082GITS
25.2254VERPLANCKE Benjamin30BEL1:36:201:36:464:36 13.0884ZERKEGEM
26.2372DEPRINCE Dieter34BEL1:36:231:37:194:37 13.0189OUDENBURG
27.2066DECADT Lode31BEL1:37:401:37:534:39 12.9395ZWEVEZELE
28.2051COSYNS Lode33BEL1:37:451:38:144:40 12.8997TORHOUT
29.2289GESQUIÈRE Gunther28BEL1:38:221:38:514:42 12.81102
30.2344VANDEMERGEL Kristof27BEL1:38:431:38:564:42 12.79103
31.2267VERNOU Lorenzo21BEL1:39:201:39:524:45 12.68112INGELMUNSTER
32.2059DE JONGE Kobe29BEL1:39:321:39:554:45 12.67113OUDENAARDE
33.2123GESQUIÈRE Wouter33BEL1:39:301:40:004:45 12.66116TORHOUT
34.2137JAQUES David32BEL1:39:251:40:024:45 12.65117TORHOUT
35.2342STEENHUGSE Dries28BEL1:39:551:40:124:45 12.63118
36.2221VANDENBERGHE Kurt32BEL1:40:161:40:344:47 12.59123LICHTERVELDE
37.2378PROVOST Kevin25BEL1:39:481:40:374:47 12.58124OOSTENDE
38.2307LIEVENS Mathieu27BEL1:40:191:40:474:47 12.56126
39.2369D HONDT Olivier24BEL1:40:201:40:594:48 12.53128LEDEGEM
40.2222VANDENBERGHE Nick34BEL1:40:441:41:044:48 12.52129KORTEMARK
41.2181SIMOENS Frederik33BEL1:42:221:42:334:52 12.34135TORHOUT
42.2110D'HEEDENE Karim18BEL1:42:371:43:084:54 12.27140LICHTERVELDE
43.2224VANDENBROUCKE Daan18BEL1:42:481:43:194:54 12.25142LICHTERVELDE
44.2112DOMBRECHT Francis34BEL1:42:501:43:244:55 12.24143MALDEGEM
45.2074DEFEVERE Carl27BEL1:43:351:43:354:55 12.22146AARTRIJKE
46.2091DENOO Timo22BEL1:43:301:44:004:56 12.17150TORHOUT
47.2375CROMBEZ Birgen31BEL1:43:181:44:074:57 12.16151LICHTERVELDE
48.2377VANZIELEGHEM Zeger28BEL1:43:181:44:074:57 12.16152HANDZAME
49.2279VANCAYSEELE Nico32BEL1:44:021:44:314:58 12.11156
50.2116DUYSBURGH Dimitri29BEL1:44:181:45:014:59 12.05159BRUGGE
51.2379DEREUDDRE Steven26BEL1:44:341:45:135:00 12.03164BRUGGE
52.2085DEMARÉ Jonathan31BEL1:44:241:45:175:00 12.02165LICHTERVELDE
53.2164NEIRYNCK Frederik32BELTE CONNECTIVITY1:44:331:45:225:00 12.01166TORHOUT
54.2365MISSINNE Jeroen30BEL1:44:541:45:295:01 12.00167
55.2358LAMOTE Matthias29BEL1:47:111:47:275:06 11.78181
56.2028CAILLIEZ Pieter32BEL1:43:441:47:365:07 11.76183TORHOUT
57.2366BOLLE Tommy30BEL1:47:071:48:085:08 11.71188
58.2347DE WITTE Timo21BEL1:47:361:48:145:08 11.69190
59.2381VERSCHAEVE Thomas26BEL1:47:151:48:165:08 11.69191KOOLSKAMP
60.2364LAGROU Nathaniel21BEL1:48:361:48:425:10 11.64197
61.2106DEWITTE Angelo33BEL1:48:031:48:545:10 11.62200POELKAPELLE
62.2048COOPMAN Piet27BEL1:48:131:49:075:11 11.60201GENT
63.2017BODDIN Guillian17BEL1:50:251:50:335:15 11.45209TORHOUT
64.2349SAELENS Kilian21BEL1:50:351:51:135:17 11.38212
65.2357DEMANET Jelle30BEL1:51:301:52:055:19 11.29217
66.2071DECOCK Niels21BEL1:52:131:52:205:20 11.27219AARTRIJKE
66.2215VANDAELE Stein21BEL1:52:131:52:205:20 11.27219ASSEBROEK
68.2331DEVROYE Tim22BEL1:52:141:52:205:20 11.27221
69.2057DE CLERCK Wouter31BEL1:53:411:54:415:27 11.04239LICHTERVELDE
70.2086DEMEESTERE Wendy34BEL1:54:351:55:085:28 10.99243ZWEVEGEM
71.2101DEVOLDER Christophe34BEL1:54:351:55:205:29 10.97245MEULEBEKE
72.2360RIGOLLE Kevin33BEL1:56:191:56:395:32 10.85256
73.2103DEVRIESE Nicolas33BEL1:56:531:57:465:35 10.75268JABBEKE
74.2113DOOM Roy19BEL1:58:401:59:325:40 10.59281OUDENBURG
75.2104DEWAELE Kristof32BEL1:59:041:59:445:41 10.57282TORHOUT
76.2069DECLERCQ Wouter20BEL1:59:031:59:555:42 10.56283ZERKEGEM
77.2382VANDIERENDONCK Gert21BEL1:59:542:00:445:44 10.48289ZWEVEZELE
78.2111DIETER Sander33BEL2:00:322:01:035:45 10.46292DE HAAN
79.2120FOLLEBOUT Marijn32BEL2:01:022:02:035:48 10.37295LICHTERVELDE
80.2241VANOVERBERGHE Mathieu34BEL2:03:252:04:285:55 10.17304DADIZELE
81.2354DEHANDT Ruben29BEL2:04:232:05:025:56 10.12307
82.2293DE BLAUWE Jeroen25BEL2:04:492:05:135:57 10.11310
83.2280JAQUES Stijn22BEL2:05:472:06:166:00 10.02318
84.2226VANDENHENDE Steven33BEL2:06:282:07:176:03 9.94325PITTEM
85.2162NAESSENS Anton27BEL2:07:142:08:176:05 9.87328KORTRIJK
86.2338BAKELANDT Klaas21BEL2:09:082:09:146:08 9.80333
87.2374HAERYNCK Bart29BEL2:09:052:09:546:10 9.74340ROESELARE
88.2173SANDERS Frederik26BEL2:17:452:18:466:35 9.12356ROESELARE
89.2180SEURYNCK Bert30BEL2:18:382:19:136:36 9.09357TORHOUT
90.2367BOTERMAN Michael30BEL2:18:442:19:206:37 9.08358AARTRIJKE
DNF2237VANKEIRSBILCK Lieven34BELROESELARE
DNF: abandon; DSQ: disqualifié; Vitesse en km/h
Bladzijde: [1]